星链-31806 (STARLINK-31806 )

导读

STARLINK-31806是美国SpaceX公司星链计划中的卫星,于2024年5月3日发射升空。作为星链星座的组成部分,它旨在为全球提供高速低延迟互联网服务,尤其覆盖偏远地区。该卫星继承星链技术特点,依托星座组网,助力全球互联网覆盖基础设施建设,推进SpaceX的全球卫星互联网布局。

基本信息
目录编号:
59640
目录名称:
STARLINK-31806
国际标识:
2024-082K
轨道中心:
EARTH
卫星名称:
星链-31806
卫星全名:
星链-31806 (STARLINK-31806 )
卫星状态:
在轨 (已飞行861 天)
发射日期:
2024-05-03 UTC
国别 :
美国 (US)
星等 :
--
该卫星已列入 空间交会检测服务 Space Conjunction Data Service (SCDS) ,当前飞行风险评估等级: 高风险
轨道信息
数据来源 国际轨道数据 AOE轨道数据
星历时间 2026-09-11T12:57:07+0800
16小时前
查看轨道信息
2026-09-10T00:00:00+0800
2天前
查看轨道信息
半长轴 6861.216km 6861.187km
偏心率 0.000053 0.0001014
轨道倾角 42.999° 42.998°
近地点辐角 268.106° 272.630°
升交点赤经 172.162° 180.873°
平近点角 91.973° 250.476°
近地点 482.715km 482.354km
远地点 483.443km 483.746km
周期 94.267分钟 94.267分钟
每日圈数 15.275701 15.275798
详细信息
固有亮度:
5
最大亮度:
1.5
卫星平台:
Starlink v2.0 mini
覆盖范围:
全球
运营商:
太空探索技术公司
运营商所在国:
美国
制造商(研发单位):
太空探索技术公司
制造商所在国:
美国
使用方式:
暂无
卫星简介
星链(Starlink)计划是由太空探索技术公司(SpaceX)提出的一个巨型低轨卫星互联网星座项目,计划在2019年至2024年间在太空搭建由约1.2万颗卫星组成的“星链”网络,其中1584颗将部署在地球上空550千米处的近地轨道,并从2020年开始工作。该卫星仍在工作。
2D轨道图
3D轨道图
轨道高度分析图
轨道倾角分析图
轨道综合分析图
查看轨道综合分析图
交会数据列表
事件ID 空间交会对象 最接近时刻(TCA) 交会距离 交会风险概率(CRP) 交会风险指数(CRI) 操作
CDM_260914-033905-964006-657121
2026-09-14T
03:39:00+0000
0.208 km
中距离
6.764664E-4 高风险 0.92
CDM_260913-102505-964006-401821
2026-09-13T
10:25:03+0000
0.842 km
远距离
3.633263E-5 中风险 0.66
CDM_260913-115905-964006-401821
2026-09-13T
11:59:12+0000
0.986 km
远距离
2.134977E-5 中风险 0.62
CDM_260913-023305-964006-649922
2026-09-13T
02:33:07+0000
1.090 km
极远距离
1.531106E-5 中风险 0.59
CDM_260913-133305-753005-964021
2026-09-13T
13:33:54+0000
1.181 km
极远距离
1.134099E-5 中风险 0.56
CDM_260913-115905-753005-964021
2026-09-13T
11:59:45+0000
1.348 km
极远距离
7.191002E-6 低风险 0.52
CDM_260914-025405-753005-964021
2026-09-14T
02:54:11+0000
1.429 km
极远距离
5.914133E-6 低风险 0.5
CDM_260913-155305-964006-649921
2026-09-13T
15:53:24+0000
1.552 km
极远距离
4.617356E-6 低风险 0.48
CDM_260913-164205-964006-365521
2026-09-13T
16:42:52+0000
1.617 km
极远距离
3.949101E-6 低风险 0.47
CDM_260913-040705-964006-649921
2026-09-13T
04:07:16+0000
1.834 km
极远距离
2.811732E-6 低风险 0.44
与全量物体交会距离演化趋势
与全量物体交会风险概率演化趋势